Location: Unspecified
(0.0000°N, 0.0000°E)
Time: 23:58:39
(UTC+02:00)

IUS-9 SRM-1 - Visible Passes

Search period start: 04 August 2015 00:00
Search period end: 14 August 2015 00:00
Orbit: 250 x 20342 km, 26.4° (Epoch: 03 August)

Date Brightness Start Highest point End Pass type
(mag) Time Alt. Az. Time Alt. Az. Time Alt. Az.
04 Aug 5.7 07:17:20 14° WSW 07:27:13 47° S 11:02:13 10° E visible
05 Aug 5.6 07:05:54 18° WSW 07:14:23 46° S 10:26:41 10° ESE visible
06 Aug 5.5 06:54:22 22° WSW 07:01:31 46° S 09:26:30 10° ESE visible
07 Aug 5.3 06:42:45 27° WSW 06:48:38 45° S 08:24:13 10° ESE visible
08 Aug 5.2 06:31:03 31° SW 06:35:42 44° S 07:47:18 10° ESE visible
09 Aug 5.2 06:19:16 35° SW 06:22:44 44° S 07:19:46 10° ESE visible
10 Aug 5.1 06:07:23 39° SW 06:09:44 43° S 06:56:34 10° ESE visible
11 Aug 5.2 05:55:24 42° SSW 05:56:40 43° S 06:35:52 10° ESE visible
12 Aug 5.2 05:43:21 42° S 05:43:34 42° S 06:16:47 10° ESE visible
13 Aug 5.4 05:31:11 41° S 05:31:11 41° S 05:58:49 10° ESE visible
